sat.trackr.live / text

‹ back to catalog

ONEWEB-0461

NORAD 51649 · 2022-012AD

PAYLOAD ACTIVE UNKNOWN

§ Identity

Operator
Country
UK
Launch date
2022-02-10
Launch site
FRGUI
Launch vehicle
Mass (kg)
RCS (m²)

Purposes: comms

External: N2YO · Heavens-Above · Gunter

§ Orbital elements

Epoch: 2026-09-19T13:00:12.477312Z

Period
109.29 min
Inclination
87.9201°
Eccentricity
0.0001758
Mean motion
13.17651106 rev/d
Perigee alt
1,192.4 km
Apogee alt
1,195.0 km
Semi-major
7,571.8 km
B*
-3.2377e-5
RAAN
347.1253°
Arg perigee
102.6363°
Mean anomaly
257.4965°
Rev number
22,631

§ Raw data

ONEWEB-04611 51649U 22012AD  26262.54181108  .00000000  00000+0 -32377-4 0  99942 51649  87.9201 347.1253 0001758 102.6363 257.4965 13.17651106226314

JSON: /api/v1/satellites/51649 · /tle

For live sub-satellite position, see the globe view (requires WebGL).

§ Visibility from observer

Set your observer location to see the next 7 days of passes ≥ 10°. The values pass through the URL so the page stays shareable.

No JS? Fill the form by hand. The geolocation button needs JavaScript.